www.pogodaiklimat.ru

Погода и климат >> Архив погоды >> Канада >> Нунавут >> Корал-Харбор


ПОГОДА в Корал-Харборе

  • Прогноз погоды в Корал-Харборе
  • Монитор погоды в Корал-Харборе

АРХИВ ПОГОДЫ в Корал-Харборе

Время (UTC), дата Ветер
(напр.,м/с)
 
Видим.   Явления Облачность Т
(С)
Тd
(С)
f
(%)
Тe
(С)
Тes
(С)
Комфортность P
(гПа)
Po
(гПа)
Тmin
(С)
Tmax
(С)
R
(мм)
R24
(мм)
S
(см)
09 15.02 С 2 24 км 3/0
[]
-34.4 -37.9 70 -41 -41 опасность
обморожения
1020.8 1012.1
12 15.02 С 5 24 км ледяные иглы {снег} 4/3 300 м
[Sc Ci fib]
-37.3 -41.1 67 -51 -51 опасность
обморожения
1021.0 1012.2 -33.1 0.0 46
15 15.02 С 4 24 км 5/5 300 м
[]
-35.1 -38.8 69 -47 -47 опасность
обморожения
1020.7 1011.9
18 15.02 С 1 24 км ледяные иглы {снег} 10/3 300 м
[Sc Ci fib]
-32.6 -36.3 69 -34 -33 опасность
обморожения
1020.5 1011.8 0.0 46
21 15.02 С 4 24 км 9/9 300 м
[]
-30.2 -33.5 73 -42 -42 опасность
обморожения
1019.9 1011.2
00 16.02 С 6 24 км ледяные иглы {снег} 8/8 2000 м
[Sc Ac trans]
-27.4 -30.5 75 -40 -40 опасность
обморожения
1019.5 1010.8 -26.6 0.0 45
03 16.02 СВ 8 24 км 8/0
[]
-24.3 -27.1 78 -38 -38 опасность
обморожения
1018.6 1010.0
06 16.02 СВ 9 24 км ледяные иглы {снег} 10/0 2000 м
[Ac As Ci sp]
-21.8 -24.3 80 -35 -35 опасность
обморожения
1018.0 1009.4 0.0 61
09 16.02 СВ 11 19 км 9/0 2000 м
[]
-23.0 -25.7 78 -38 -38 опасность
обморожения
1017.1 1008.6
12 16.02 С 14 1600 м ледяные иглы {снег} 9/4 1000 м
[Sc Ac As]
-24.2 -27.0 78 -41 -41 опасность
обморожения
1017.1 1008.6 -27.4 0.0 45
15 16.02 С 10 4800 м 10/10 1500 м
[]
-22.8 -25.4 79 -37 -37 опасность
обморожения
1017.6 1009.1
18 16.02 СВ 10 6000 м метель {снег} 10/10 1000 м
[Cu Sc]
-21.5 -24.0 80 -35 -35 опасность
обморожения
1017.9 1009.4 -32.9 -21.5 45
21 16.02 С 12 4800 м 10/10 1000 м
[]
-22.0 -24.6 79 -37 -37 опасность
обморожения
1018.2 1009.7
00 17.02 С 10 1600 м ледяные иглы {снег} 10/8 1000 м
[Sc Ac As]
-23.0 -25.6 79 -37 -37 опасность
обморожения
1019.1 1010.6 -24.2 -21.1 0.0 45
03 17.02 С 8 12 км 10/10 1000 м
[]
-24.1 -26.9 78 -38 -38 опасность
обморожения
1019.9 1011.4
06 17.02 С 10 12 км ледяные иглы {снег} 9/0 2000 м
[Ac trans]
-24.1 -26.8 78 -39 -39 опасность
обморожения
1019.8 1011.3 -24.4 -21.1 0.0 12
09 17.02 С 9 12 км 9/0 2000 м
[]
-24.4 -27.2 78 -39 -39 опасность
обморожения
1019.7 1011.2
12 17.02 С 8 24 км ледяные иглы {снег} 8/0 2000 м
[Ac As]
-24.7 -27.5 77 -38 -38 опасность
обморожения
1020.2 1011.7 -24.7 -21.1 0.0 45
15 17.02 С 7 24 км 6/0 2000 м
[]
-26.2 -29.0 77 -39 -39 опасность
обморожения
1020.2 1011.7
18 17.02 С 5 24 км ледяные иглы {снег} 8/0
[Ac As Ci sp]
-26.0 -29.0 76 -38 -37 опасность
обморожения
1019.7 1011.2 -27.1 -23.6 0.0 45
21 17.02 СВ 3 24 км 10/10 300 м
[]
-26.3 -29.2 76 -35 -35 опасность
обморожения
1019.7 1011.2
00 18.02 С 1 24 км ледяные иглы {снег} 10/0 2000 м
[Ac As Cs]
-27.7 -30.7 75 -32 -32 опасность
обморожения
1019.9 1011.3 -28.5 -24.6 0.0 45
03 18.02 С 3 24 км 10/0 2000 м
[]
-29.3 -32.4 74 -38 -38 опасность
обморожения
1018.7 1010.1
06 18.02 С 5 24 км ледяные иглы {снег} 9/0 2000 м
[Ac trans Ci fib]
-30.7 -33.9 73 -43 -43 опасность
обморожения
1017.5 1008.9 -31.2 -23.6 0.0 91
09 18.02 С 3 24 км 8/0 2000 м
[]
-29.5 -32.7 74 -38 -38 опасность
обморожения
1016.4 1007.8
12 18.02 С 1 24 км ледяные иглы {снег} 10/0 2000 м
[Ac trans]
-29.4 -32.5 74 -34 -34 опасность
обморожения
1015.4 1006.8 -23.6 0.0 45
15 18.02 С 4 24 км 9/0
[]
-30.6 -33.9 73 -41 -41 опасность
обморожения
1014.3 1005.7
18 18.02 С 4 24 км ледяные иглы {снег} 9/9 300 м
[]
-29.7 -32.9 74 -41 -41 опасность
обморожения
1013.0 1004.4 0.0 45
21 18.02 С 4 24 км 4/4 300 м
[]
-31.3 -34.6 73 -43 -43 опасность
обморожения
1012.1 1003.5
00 19.02 С 6 24 км ледяные иглы {снег} 5/1 300 м
[Sc Ci fib]
-34.4 -37.9 70 -49 -49 опасность
обморожения
1011.3 1002.7 -28.8 0.0 45
03 19.02 С 8 24 км 4/4 600 м
[]
-34.8 -38.4 70 -51 -51 опасность
обморожения
1009.8 1001.2
06 19.02 С 7 24 км ледяные иглы {снег} 5/5 600 м
[Sc Ci fib]
-36.3 -39.9 69 -52 -52 опасность
обморожения
1009.3 1000.7 0.0 20
09 19.02 С 6 24 км 5/5 600 м
[]
-37.8 -41.5 68 -53 -53 опасность
обморожения
1009.0 1000.3
12 19.02 С 6 24 км ледяные иглы {снег} 9/9 600 м
[Sc]
-34.5 -38.1 70 -50 -50 опасность
обморожения
1008.4 999.8 0.0 45
15 19.02 СЗ 4 24 км 6/6 600 м
[]
-35.1 -38.7 69 -48 -47 опасность
обморожения
1008.4 999.7
18 19.02 С 5 24 км ледяные иглы {снег} ясно -32.4 -35.9 71 -46 -45 опасность
обморожения
1008.2 999.6 0.0 45
21 19.02 С 7 24 км ясно -32.2 -35.6 72 -48 -47 опасность
обморожения
1008.3 999.6
00 20.02 С 6 24 км ледяные иглы {снег} ясно -34.0 -37.5 70 -49 -49 опасность
обморожения
1008.9 1000.3 -31.3 0.0 45
03 20.02 С 8 24 км 4/0
[]
-35.1 -38.8 69 -52 -52 опасность
обморожения
1009.3 1000.6
06 20.02 С 6 24 км ледяные иглы {снег} 1/0
[Ac As]
-35.9 -39.6 69 -51 -51 опасность
обморожения
1010.2 1001.5 0.0 231
09 20.02 С 7 24 км ясно -34.9 -38.6 69 -51 -51 опасность
обморожения
1010.9 1002.3
12 20.02 СЗ 3 24 км ледяные иглы {снег} 1/0
[Ac As]
-32.1 -35.7 70 -41 -41 опасность
обморожения
1011.7 1003.1 -36.4 0.0 45
15 20.02 СЗ 5 24 км 5/0 2000 м
[]
-32.3 -36.0 69 -45 -45 опасность
обморожения
1012.0 1003.3
18 20.02 З 4 24 км ледяные иглы {снег} 3/0 2000 м
[Ac As Ci fib]
-30.6 -34.5 69 -42 -41 опасность
обморожения
1012.1 1003.5 -36.4 -29.1 0.0 45
21 20.02 СЗ 3 24 км ясно -31.2 -35.2 68 -41 -41 опасность
обморожения
1011.6 1003.0
00 21.02 СЗ 5 24 км ледяные иглы {снег} 1/0
[]
-31.8 -35.6 69 -45 -45 опасность
обморожения
1012.1 1003.5 -35.8 -28.8 0.0 45
03 21.02 С 2 24 км 3/0
[]
-30.6 -34.8 67 -38 -38 опасность
обморожения
1011.3 1002.7
06 21.02 С 5 24 км ледяные иглы {снег} 1/0
[Ci fib]
-31.3 -34.8 71 -44 -44 опасность
обморожения
1009.9 1001.3 -35.8 -28.8 0.0 71
12 21.02 СЗ 3 19 км ледяные иглы {снег} 1/0
[Ci fib]
-30.6 -33.8 73 -40 -40 опасность
обморожения
1009.5 1000.9 -28.8 0.0 45
15 21.02 СЗ 12 19 км 3/3 1000 м
[]
-26.3 -29.9 72 -43 -43 опасность
обморожения
1007.6 999.1
18 21.02 СЗ 8 19 км ледяные иглы {снег} 5/4 1500 м
[Sc Ac As Ci fib]
-22.6 -26.4 71 -36 -36 опасность
обморожения
1007.7 999.2 0.0 45
21 21.02 СЗ 10 19 км 6/6 1500 м
[]
-21.1 -24.3 75 -35 -35 опасность
обморожения
1008.2 999.7
00 22.02 С 8 19 км ледяные иглы {снег} 8/8 1000 м
[Sc]
-20.3 -23.6 75 -33 -33 опасность
обморожения
1008.9 1000.4 -20.0 0.0 45
03 22.02 СЗ 8 24 км 4/4 1000 м
[]
-22.2 -25.3 76 -35 -35 опасность
обморожения
1008.8 1000.4
06 22.02 С 6 24 км ледяные иглы {снег} 1/1 1000 м
[Sc]
-25.8 -28.8 76 -38 -38 опасность
обморожения
1009.3 1000.9 0.0 71

 

Местоположение метеостанции Корал-Харбор (Нунавут, Канада): широта 64.20 долгота -83.36 высота над уровнем моря 64 м.

В архиве по умолчанию представлена погода в Корал-Харборе за последнюю неделю. Архивные данные за месяц целиком и за предыдущие месяцы, начиная с января 2011 года, Вы можете получить, выбрав интересующий диапазон дат из раскрывающегося списка и нажав кнопку "Ввод!".


*Определитесь, кто Вы:
робот инопланетянин человек

Внимание! Время в таблицах - всемирное. Для получения местного времени необходимо прибавить поправку, которая равна -5 ч.

Смотрите также архив погоды в соседних городах и на ближайших метеорологических станциях:

Погода в Кейп-Дорсете (Нунавут, Канада) (330 км)
Погода в Вейджер Бэй (Нунавут, Канада) (340 км)
Погода в Ранкин-Инлете (Нунавут, Канада) (460 км)
Погода в Холл Бич (Нунавут, Канада) (518 км)
Погода в Кам Фор (Нунавут, Канада) (549 км)
Погода в Кугааруке (Нунавут, Канада) (560 км)
Погода на Острове Роули (Нунавут, Канада) (575 км)
Погода в Национальном парке Пингалюи (Квебек, Канада) (589 км)
Погода в Бейкер Лейк (Нунавут, Канада) (610 км)
Погода в Бейкер-Лейке (Нунавут, Канада) (613 км)

Пояснения к столбцам:

Ветер - указаны скорость ветра в м/с - средняя за 10 мин, порывы в срок и между сроками (в фигурных скобках) и направление, откуда дует ветер: С - северный, СВ - северо-восточный, В - восточный, ЮВ - юго-восточный, Ю - южный, ЮЗ - юго-западный, З - западный, СЗ - северо-западный.
Видимость - горизонтальная дальность видимости в метрах или километрах. При видимости от 1 до 10 км при отсутствии осадков обычно наблюдается дымка, при ухудшении видимости до 1 км и менее - туман. В сухую погоду видимость может ухудшаться дымом, пылью или мглою.
Явления - указаны атмосферные явления, наблюдавшиеся в срок или в последний час перед сроком; фигурными скобками обозначены явления, наблюдавшиеся между сроками (за 1-3 часа до срока); квадратными скобками обозначены град или гололедные отложения с указанием их диаметра в мм.
Облачность - указаны через наклонную черту общая и нижняя облачность в баллах и высота нижней границы облаков в метрах; квадратными скобками обозначены формы облаков: Ci - перистые, Cs - перисто-слоистые, Cc - перисто-кучевые, Ac - высококучевые, As - высокослоистые, Sc - слоисто-кучевые, Ns - слоисто-дождевые, Cu - кучевые, Cb - кучево-дождевые. Подробнее классификацию облаков см. в Атласе облаков (PDF).
T - Температура воздуха - температура, измеренная на высоте 2 м над землей.
Td - Температура точки росы - температура, при понижении до которой содержащийся в воздухе водяной пар достигнет насыщения.
f - Относительная влажность воздуха - влажноcть воздуха, измеренная на высоте 2 м над землей.
Te - Эффективная температура - температура, которую ощущает одетый по сезону человек в тени. Характеристика душности погоды. При расчете учитывается влияние влажности воздуха и скорости ветра на теплоощущения человека.
Tes - Эффективная температура на солнце - температура, которую ощущает человек, с поправкой на солнечный нагрев. Характеристика знойности погоды. Зависит от высоты солнца над горизонтом, облачности и скорости ветра. Ночью, в пасмурную погоду, а также при ветре 12 м/с и более поправка равна нулю.
P - Атмосферное давление - приведенное к уровню моря атмосферное давление.
Po - Атмосферное давление - измеренное на уровне метеостанции атмосферное давление.
Tmin - Минимальная температура - минимум температуры воздуха на высоте 2 м над землей.
Tmax - Максимальная температура - максимум температуры воздуха на высоте 2 м над землей.
R - Количество осадков - Количество выпавших осадков за период времени, мм. При наведении курсора мыши на число - период времени, за который выпало указанное количество осадков.
R24 - Количество осадков - Количество выпавших осадков за 24 часа, мм.
S - Снежный покров - Высота снежного покрова, см. При наведении курсора мыши на число - состояние снежного покрова и степень покрытия местности в баллах.